20060222,000006,1560898,35.019500,-123.637500,NaN,13.129,32.983,38.960,  NaN,NaN,3.199, NaN, NaN,14.000, NaN,   NaN,12.00,1023.24,72.90,NaN,12.0,NaN,14.7,NaN,341.4,NaN,28.5,NaN,NaN,1.347,NaN,326.0,NaN,NaN,NaN,2,7.7,000005,   NaN,326.2,     NaN,      NaN,NaN,10.6,NaN, NaN,21.700,NaN,NaN, NaN, NaN
20060222,000036,1560928,35.020300,-123.638200,NaN,13.129,32.983,38.960,  NaN,NaN,2.609, NaN, NaN,14.000, NaN,   NaN,12.00,1023.34,71.00,NaN,3.0,NaN,14.2,NaN,331.8,NaN,27.6,NaN,NaN,1.211,NaN,329.0,NaN,NaN,NaN,2,7.7,000035,   NaN,328.0,     NaN,      NaN,NaN,11.0,NaN, NaN,25.650,NaN,NaN, NaN, NaN
20060222,000106,1560958,35.021300,-123.639000,NaN,13.129,32.983,38.960,  NaN,NaN,6.092, NaN, NaN,14.000, NaN,   NaN,12.00,1023.42,70.00,NaN,7.0,NaN,13.1,NaN,337.1,NaN,25.4,NaN,NaN,1.851,NaN,327.0,NaN,NaN,NaN,2,8.0,000105,   NaN,327.9,     NaN,      NaN,NaN,11.6,NaN, NaN,45.040,NaN,NaN, NaN, NaN
20060222,000136,1560988,35.022300,-123.639700,NaN,13.149,32.983,38.970,  NaN,NaN,24.780, NaN, NaN,14.000, NaN,   NaN,11.80,1023.36,71.00,NaN,3.0,NaN,13.9,NaN,333.4,NaN,27.1,NaN,NaN,3.430,NaN,327.0,NaN,NaN,NaN,2,7.7,000135,   NaN,329.5,     NaN,      NaN,NaN,11.7,NaN, NaN,85.160,NaN,NaN, NaN, NaN
20060222,000206,1561018,35.023200,-123.640300,NaN,13.159,32.983,38.980,  NaN,NaN,8.153, NaN, NaN,14.000, NaN,   NaN,11.80,1023.52,69.70,NaN,4.0,NaN,12.7,NaN,333.0,NaN,24.6,NaN,NaN,2.120,NaN,324.0,NaN,NaN,NaN,2,8.0,000205,   NaN,327.7,     NaN,      NaN,NaN,10.9,NaN, NaN,47.320,NaN,NaN, NaN, NaN
20060222,000236,1561048,35.024200,-123.641200,NaN,13.159,32.983,38.980,  NaN,NaN,4.104, NaN, NaN,14.000, NaN,   NaN,11.80,1023.35,69.60,NaN,4.0,NaN,13.7,NaN,335.3,NaN,26.7,NaN,NaN,1.528,NaN,328.0,NaN,NaN,NaN,2,7.8,000235,   NaN,330.1,     NaN,      NaN,NaN,11.0,NaN, NaN,30.650,NaN,NaN, NaN, NaN
20060222,000306,1561078,35.025000,-123.641800,NaN,13.149,32.983,38.980,  NaN,NaN,1.257, NaN, NaN,14.500, NaN,   NaN,12.00,1023.46,71.40,NaN,8.0,NaN,14.9,NaN,337.8,NaN,28.9,NaN,NaN,0.803,NaN,325.0,NaN,NaN,NaN,2,7.5,000305,   NaN,327.7,     NaN,      NaN,NaN,10.9,NaN, NaN,8.634,NaN,NaN, NaN, NaN
20060222,000336,1561108,35.026000,-123.642500,NaN,13.149,32.983,38.970,  NaN,NaN,13.156, NaN, NaN,14.000, NaN,   NaN,12.00,1023.21,71.10,NaN,3.0,NaN,12.8,NaN,333.5,NaN,24.9,NaN,NaN,2.625,NaN,330.0,NaN,NaN,NaN,2,7.7,000335,   NaN,329.6,     NaN,      NaN,NaN,11.3,NaN, NaN,63.030,NaN,NaN, NaN, NaN
20060222,000406,1561138,35.026800,-123.643200,NaN,13.149,32.983,38.970,  NaN,NaN,6.903, NaN, NaN,14.000, NaN,   NaN,12.00,1023.57,72.00,NaN,7.0,NaN,14.2,NaN,334.2,NaN,27.7,NaN,NaN,1.963,NaN,324.0,NaN,NaN,NaN,2,7.2,000405,   NaN,325.4,     NaN,      NaN,NaN,10.3,NaN, NaN,52.230,NaN,NaN, NaN, NaN
20060222,000436,1561168,35.027700,-123.644000,NaN,13.149,32.983,38.970,  NaN,NaN,2.634, NaN, NaN,14.000, NaN,   NaN,12.00,1023.26,73.10,NaN,14.0,NaN,14.2,NaN,345.5,NaN,27.6,NaN,NaN,1.217,NaN,326.0,NaN,NaN,NaN,2,7.5,000435,   NaN,327.7,     NaN,      NaN,NaN,11.0,NaN, NaN,35.390,NaN,NaN, NaN, NaN
20060222,000506,1561198,35.028500,-123.644700,NaN,13.149,32.973,38.970,  NaN,NaN,173.597, NaN, NaN, NaN, NaN,   NaN,12.00,1023.34,73.70,NaN,12.0,NaN,14.4,NaN,344.3,NaN,27.9,NaN,NaN,7.182,NaN,327.0,NaN,NaN,NaN,2,7.8,000505,   NaN,329.0,     NaN,      NaN,NaN,11.2,NaN, NaN,187.400,NaN,NaN, NaN, NaN
20060222,000536,1561228,35.029500,-123.645300,NaN,13.139,32.973,38.960,  NaN,NaN,0.777, NaN, NaN,14.400, NaN,   NaN,12.00,1023.23,74.20,NaN,10.0,NaN,13.3,NaN,342.5,NaN,25.9,NaN,NaN,0.593,NaN,327.0,NaN,NaN,NaN,2,7.0,000535,   NaN,329.8,     NaN,      NaN,NaN,10.6,NaN, NaN,4.994,NaN,NaN, NaN, NaN
20060222,000606,1561258,35.030300,-123.646000,NaN,13.139,32.973,38.960,  NaN,NaN,157.725, NaN, NaN, NaN, NaN,   NaN,12.00,1023.47,74.30,NaN,13.0,NaN,13.5,NaN,346.0,NaN,26.3,NaN,NaN,6.942,NaN,329.0,NaN,NaN,NaN,2,7.6,000605,   NaN,329.3,     NaN,      NaN,NaN,10.8,NaN, NaN,185.200,NaN,NaN, NaN, NaN
20060222,000636,1561288,35.031300,-123.646700,NaN,13.139,32.983,38.960,  NaN,NaN,207.231, NaN, NaN, NaN, NaN,   NaN,12.00,1023.35,75.20,NaN,12.0,NaN,13.8,NaN,348.2,NaN,26.8,NaN,NaN,7.643,NaN,331.0,NaN,NaN,NaN,2,8.2,000635,   NaN,332.6,     NaN,      NaN,NaN,11.7,NaN, NaN,182.400,NaN,NaN, NaN, NaN
20060222,000706,1561318,35.032300,-123.647300,NaN,13.139,32.983,38.960,  NaN,NaN,1.876, NaN, NaN,14.000, NaN,   NaN,11.80,1023.19,74.30,NaN,13.0,NaN,13.2,NaN,346.7,NaN,25.7,NaN,NaN,1.012,NaN,330.0,NaN,NaN,NaN,2,7.9,000705,   NaN,329.7,     NaN,      NaN,NaN,11.6,NaN, NaN,13.380,NaN,NaN, NaN, NaN
20060222,000736,1561348,35.033300,-123.648000,NaN,13.139,32.973,38.960,  NaN,NaN,11.284, NaN, NaN,14.000, NaN,   NaN,11.80,1023.28,75.50,NaN,15.0,NaN,11.6,NaN,352.7,NaN,22.5,NaN,NaN,2.454,NaN,332.0,NaN,NaN,NaN,2,7.8,000735,   NaN,332.5,     NaN,      NaN,NaN,11.3,NaN, NaN,54.370,NaN,NaN, NaN, NaN
20060222,000806,1561378,35.034300,-123.648700,NaN,13.129,32.983,38.950,  NaN,NaN,22.694, NaN, NaN,14.000, NaN,   NaN,11.80,1023.36,74.50,NaN,10.0,NaN,14.0,NaN,344.4,NaN,27.3,NaN,NaN,3.308,NaN,331.0,NaN,NaN,NaN,2,7.9,000805,   NaN,331.5,     NaN,      NaN,NaN,11.2,NaN, NaN,71.420,NaN,NaN, NaN, NaN
20060222,000836,1561408,35.035300,-123.649300,NaN,13.139,32.973,38.950,  NaN,NaN,0.871, NaN, NaN,14.400, NaN,   NaN,11.80,1023.66,74.50,NaN,14.0,NaN,11.7,NaN,349.4,NaN,22.8,NaN,NaN,0.639,NaN,327.0,NaN,NaN,NaN,2,7.9,000835,   NaN,330.6,     NaN,      NaN,NaN,11.5,NaN, NaN,3.147,NaN,NaN, NaN, NaN
20060222,000906,1561438,35.036200,-123.650000,NaN,13.139,32.973,38.950,  NaN,NaN,2.708, NaN, NaN,14.000, NaN,   NaN,11.80,1023.53,75.10,NaN,12.0,NaN,12.9,NaN,348.5,NaN,25.0,NaN,NaN,1.235,NaN,330.0,NaN,NaN,NaN,2,7.5,000905,   NaN,332.9,     NaN,      NaN,NaN,10.9,NaN, NaN,24.330,NaN,NaN, NaN, NaN
20060222,000936,1561468,35.037200,-123.650700,NaN,13.129,32.973,38.950,  NaN,NaN,1.063, NaN, NaN,14.400, NaN,   NaN,11.80,1023.45,74.60,NaN,9.0,NaN,11.1,NaN,344.7,NaN,21.6,NaN,NaN,0.725,NaN,332.0,NaN,NaN,NaN,2,7.7,000935,   NaN,332.5,     NaN,      NaN,NaN,10.9,NaN, NaN,3.862,NaN,NaN, NaN, NaN
20060222,001006,1561498,35.038200,-123.651200,NaN,13.139,32.973,38.950,  NaN,NaN,4.126, NaN, NaN,14.000, NaN,   NaN,11.80,1023.49,74.50,NaN,11.0,NaN,11.8,NaN,344.4,NaN,23.0,NaN,NaN,1.532,NaN,331.0,NaN,NaN,NaN,2,7.6,001005,   NaN,329.8,     NaN,      NaN,NaN,11.0,NaN, NaN,35.490,NaN,NaN, NaN, NaN
20060222,001036,1561528,35.039000,-123.651800,NaN,13.139,32.973,38.950,  NaN,NaN,0.807, NaN, NaN,14.400, NaN,   NaN,11.70,1023.50,75.40,NaN,8.0,NaN,13.8,NaN,341.3,NaN,26.8,NaN,NaN,0.608,NaN,330.0,NaN,NaN,NaN,2,7.4,001035,   NaN,331.1,     NaN,      NaN,NaN,11.1,NaN, NaN,1.879,NaN,NaN, NaN, NaN
20060222,001106,1561558,35.040000,-123.652500,NaN,13.149,32.973,38.960,  NaN,NaN,2.646, NaN, NaN,14.000, NaN,   NaN,11.80,1023.39,76.50,NaN,0.0,NaN,12.1,NaN,332.2,NaN,23.5,NaN,NaN,1.220,NaN,333.0,NaN,NaN,NaN,2,8.1,001105,   NaN,332.2,     NaN,      NaN,NaN,11.1,NaN, NaN,16.720,NaN,NaN, NaN, NaN
20060222,001136,1561588,35.041000,-123.653200,NaN,13.149,32.973,38.960,  NaN,NaN,43.509, NaN, NaN, NaN, NaN,   NaN,11.80,1023.29,75.70,NaN,3.0,NaN,13.6,NaN,332.8,NaN,26.4,NaN,NaN,4.297,NaN,331.0,NaN,NaN,NaN,2,7.9,001135,   NaN,328.9,     NaN,      NaN,NaN,11.6,NaN, NaN,114.700,NaN,NaN, NaN, NaN
20060222,001206,1561618,35.042000,-123.653800,NaN,13.149,32.973,38.960,  NaN,NaN,5.632, NaN, NaN,14.000, NaN,   NaN,11.80,1023.16,75.60,NaN,6.0,NaN,12.1,NaN,336.9,NaN,23.6,NaN,NaN,1.783,NaN,326.0,NaN,NaN,NaN,2,7.1,001205,   NaN,329.1,     NaN,      NaN,NaN,11.2,NaN, NaN,31.570,NaN,NaN, NaN, NaN
20060222,001236,1561648,35.042800,-123.654500,NaN,13.149,32.973,38.960,  NaN,NaN,191.382, NaN, NaN, NaN, NaN,   NaN,11.80,1023.51,75.40,NaN,11.0,NaN,10.9,NaN,346.3,NaN,21.3,NaN,NaN,7.433,NaN,330.0,NaN,NaN,NaN,2,7.3,001235,   NaN,331.5,     NaN,      NaN,NaN,10.7,NaN, NaN,187.600,NaN,NaN, NaN, NaN
20060222,001306,1561678,35.043700,-123.655000,NaN,13.149,32.973,38.970,  NaN,NaN,67.751, NaN, NaN, NaN, NaN,   NaN,11.80,1023.38,75.70,NaN,8.0,NaN,9.1,NaN,342.8,NaN,17.6,NaN,NaN,5.094,NaN,330.0,NaN,NaN,NaN,2,7.5,001305,   NaN,331.4,     NaN,      NaN,NaN,10.1,NaN, NaN,133.500,NaN,NaN, NaN, NaN
20060222,001336,1561708,35.044700,-123.655700,NaN,13.149,32.973,38.960,  NaN,NaN,3.892, NaN, NaN,14.000, NaN,   NaN,12.00,1023.40,77.00,NaN,10.0,NaN,11.3,NaN,343.6,NaN,22.0,NaN,NaN,1.488,NaN,333.0,NaN,NaN,NaN,2,7.8,001335,   NaN,330.1,     NaN,      NaN,NaN,11.0,NaN, NaN,25.010,NaN,NaN, NaN, NaN
20060222,001406,1561738,35.045700,-123.656300,NaN,13.149,32.973,38.960,  NaN,NaN,7.093, NaN, NaN,14.000, NaN,   NaN,12.00,1023.55,76.50,NaN,7.0,NaN,11.4,NaN,338.6,NaN,22.1,NaN,NaN,1.988,NaN,330.0,NaN,NaN,NaN,2,8.4,001405,   NaN,328.9,     NaN,      NaN,NaN,11.5,NaN, NaN,36.840,NaN,NaN, NaN, NaN
20060222,001436,1561768,35.046700,-123.657000,NaN,13.149,32.973,38.960,  NaN,NaN,1.206, NaN, NaN,14.400, NaN,   NaN,12.00,1023.45,75.90,NaN,4.0,NaN,11.6,NaN,334.1,NaN,22.6,NaN,NaN,0.783,NaN,329.0,NaN,NaN,NaN,2,7.5,001435,   NaN,328.8,     NaN,      NaN,NaN,11.7,NaN, NaN,4.004,NaN,NaN, NaN, NaN
20060222,001506,1561798,35.047500,-123.657700,NaN,13.149,32.973,38.960,  NaN,NaN,4.856, NaN, NaN,14.000, NaN,   NaN,11.80,1023.66,75.00,NaN,0.0,NaN,12.1,NaN,331.9,NaN,23.6,NaN,NaN,1.660,NaN,332.0,NaN,NaN,NaN,2,8.0,001505,   NaN,331.9,     NaN,      NaN,NaN,11.1,NaN, NaN,29.600,NaN,NaN, NaN, NaN
20060222,001536,1561828,35.048500,-123.658300,NaN,13.149,32.973,38.960,  NaN,NaN,2.830, NaN, NaN,14.000, NaN,   NaN,11.80,1023.37,73.40,NaN,5.0,NaN,11.3,NaN,335.4,NaN,22.0,NaN,NaN,1.264,NaN,331.0,NaN,NaN,NaN,2,7.9,001535,   NaN,328.6,     NaN,      NaN,NaN,11.1,NaN, NaN,23.510,NaN,NaN, NaN, NaN
20060222,001606,1561858,35.049500,-123.659000,NaN,13.159,32.973,38.970,  NaN,NaN,0.942, NaN, NaN,14.400, NaN,   NaN,11.80,1023.45,74.50,NaN,355.0,NaN,12.7,NaN,324.8,NaN,24.6,NaN,NaN,0.672,NaN,331.0,NaN,NaN,NaN,2,8.2,001605,   NaN,331.5,     NaN,      NaN,NaN,11.2,NaN, NaN,2.616,NaN,NaN, NaN, NaN
20060222,001636,1561888,35.050500,-123.659700,NaN,13.159,32.973,38.970,  NaN,NaN,0.888, NaN, NaN,14.400, NaN,   NaN,11.80,1023.58,73.30,NaN,4.0,NaN,10.7,NaN,335.4,NaN,20.7,NaN,NaN,0.647,NaN,332.0,NaN,NaN,NaN,2,8.7,001635,   NaN,329.7,     NaN,      NaN,NaN,11.6,NaN, NaN,2.201,NaN,NaN, NaN, NaN
20060222,001706,1561918,35.051500,-123.660300,NaN,13.159,32.973,38.970,  NaN,NaN,41.874, NaN, NaN,14.000, NaN,   NaN,11.80,1023.45,74.50,NaN,16.0,NaN,13.3,NaN,349.7,NaN,25.8,NaN,NaN,4.233,NaN,330.0,NaN,NaN,NaN,2,7.9,001705,   NaN,328.9,     NaN,      NaN,NaN,11.0,NaN, NaN,97.310,NaN,NaN, NaN, NaN
20060222,001736,1561948,35.052300,-123.661000,NaN,13.159,32.973,38.970,  NaN,NaN,27.652, NaN, NaN, NaN, NaN,   NaN,11.80,1023.45,73.80,NaN,13.0,NaN,12.9,NaN,346.9,NaN,25.2,NaN,NaN,3.587,NaN,329.0,NaN,NaN,NaN,2,7.7,001735,   NaN,330.0,     NaN,      NaN,NaN,11.1,NaN, NaN,100.600,NaN,NaN, NaN, NaN
20060222,001806,1561978,35.053300,-123.661800,NaN,13.159,32.963,38.970,  NaN,NaN,0.759, NaN, NaN,14.500, NaN,   NaN,12.00,1023.45,74.50,NaN,10.0,NaN,12.1,NaN,344.5,NaN,23.6,NaN,NaN,0.584,NaN,330.0,NaN,NaN,NaN,2,8.2,001805,   NaN,331.0,     NaN,      NaN,NaN,11.3,NaN, NaN,0.306,NaN,NaN, NaN, NaN
20060222,001836,1562008,35.054300,-123.662500,NaN,13.159,32.963,38.970,  NaN,NaN,0.916, NaN, NaN,14.400, NaN,   NaN,12.00,1023.44,75.10,NaN,8.0,NaN,10.1,NaN,341.5,NaN,19.6,NaN,NaN,0.660,NaN,331.0,NaN,NaN,NaN,2,8.4,001835,   NaN,330.1,     NaN,      NaN,NaN,11.6,NaN, NaN,2.495,NaN,NaN, NaN, NaN
20060222,001906,1562038,35.055300,-123.663200,NaN,13.159,32.963,38.970,  NaN,NaN,1.440, NaN, NaN,14.500, NaN,   NaN,12.00,1023.61,75.00,NaN,12.0,NaN,11.7,NaN,344.9,NaN,22.7,NaN,NaN,0.870,NaN,328.0,NaN,NaN,NaN,2,8.1,001905,   NaN,328.6,     NaN,      NaN,NaN,11.5,NaN, NaN,7.632,NaN,NaN, NaN, NaN
20060222,001936,1562068,35.056300,-123.663800,NaN,13.169,32.963,38.970,  NaN,NaN,1.714, NaN, NaN,14.000, NaN,   NaN,11.80,1023.53,72.80,NaN,12.0,NaN,12.2,NaN,346.6,NaN,23.7,NaN,NaN,0.962,NaN,330.0,NaN,NaN,NaN,2,8.1,001935,   NaN,330.5,     NaN,      NaN,NaN,11.6,NaN, NaN,14.230,NaN,NaN, NaN, NaN
20060222,002006,1562098,35.057300,-123.664500,NaN,13.169,32.963,38.970,  NaN,NaN,1.329, NaN, NaN,14.500, NaN,   NaN,12.00,1023.51,73.30,NaN,7.0,NaN,13.2,NaN,339.7,NaN,25.7,NaN,NaN,0.830,NaN,330.0,NaN,NaN,NaN,2,8.0,002005,   NaN,330.5,     NaN,      NaN,NaN,11.2,NaN, NaN,7.260,NaN,NaN, NaN, NaN
20060222,002036,1562128,35.058300,-123.665200,NaN,13.179,32.963,38.970,  NaN,NaN, NaN, NaN, NaN, NaN, NaN,   NaN,12.00,1023.30,72.60,NaN,9.0,NaN,14.4,NaN,342.6,NaN,28.0,NaN,NaN, NaN,NaN,333.0,NaN,NaN,NaN,2,7.9,002035,   NaN,331.1,     NaN,      NaN,NaN,11.7,NaN, NaN, NaN,NaN,NaN, NaN, NaN
20060222,002106,1562158,35.059300,-123.665800,NaN,13.169,32.963,38.970,  NaN,NaN,46.045, NaN, NaN, NaN, NaN,   NaN,12.00,1023.38,71.90,NaN,11.0,NaN,14.6,NaN,343.3,NaN,28.3,NaN,NaN,4.393,NaN,328.0,NaN,NaN,NaN,2,7.9,002105,   NaN,329.2,     NaN,      NaN,NaN,11.1,NaN, NaN,116.500,NaN,NaN, NaN, NaN
20060222,002136,1562188,35.060200,-123.666500,NaN,13.169,32.963,38.970,  NaN,NaN,1.814, NaN, NaN,14.000, NaN,   NaN,12.00,1023.47,70.60,NaN,4.0,NaN,12.8,NaN,334.4,NaN,24.9,NaN,NaN,0.993,NaN,330.0,NaN,NaN,NaN,2,7.9,002135,   NaN,329.1,     NaN,      NaN,NaN,11.2,NaN, NaN,11.190,NaN,NaN, NaN, NaN
20060222,002206,1562218,35.061200,-123.667200,NaN,13.179,32.953,38.970,  NaN,NaN,6.190, NaN, NaN,14.000, NaN,   NaN,12.00,1023.58,70.00,NaN,6.0,NaN,13.3,NaN,339.3,NaN,25.8,NaN,NaN,1.865,NaN,330.0,NaN,NaN,NaN,2,7.9,002205,   NaN,331.5,     NaN,      NaN,NaN,10.9,NaN, NaN,33.420,NaN,NaN, NaN, NaN
20060222,002236,1562248,35.062200,-123.667800,NaN,13.179,32.963,38.970,  NaN,NaN,0.811, NaN, NaN,14.500, NaN,   NaN,12.00,1023.35,70.90,NaN,8.0,NaN,12.7,NaN,339.1,NaN,24.6,NaN,NaN,0.610,NaN,330.0,NaN,NaN,NaN,2,8.1,002235,   NaN,328.5,     NaN,      NaN,NaN,11.2,NaN, NaN,0.439,NaN,NaN, NaN, NaN
20060222,002306,1562278,35.063200,-123.668700,NaN,13.179,32.953,38.970,  NaN,NaN,24.378, NaN, NaN,14.000, NaN,   NaN,12.00,1023.38,71.30,NaN,10.0,NaN,14.2,NaN,342.3,NaN,27.7,NaN,NaN,3.407,NaN,328.0,NaN,NaN,NaN,2,8.0,002305,   NaN,329.4,     NaN,      NaN,NaN,11.4,NaN, NaN,70.830,NaN,NaN, NaN, NaN
20060222,002336,1562308,35.064200,-123.669300,NaN,13.169,32.953,38.960,  NaN,NaN,1.343, NaN, NaN,14.500, NaN,   NaN,12.00,1023.45,70.60,NaN,6.0,NaN,13.4,NaN,340.6,NaN,26.1,NaN,NaN,0.835,NaN,333.0,NaN,NaN,NaN,2,8.3,002335,   NaN,332.7,     NaN,      NaN,NaN,11.4,NaN, NaN,6.925,NaN,NaN, NaN, NaN
20060222,002406,1562338,35.065200,-123.670000,NaN,13.159,32.953,38.960,  NaN,NaN,0.801, NaN, NaN,14.500, NaN,   NaN,12.00,1023.46,70.60,NaN,11.0,NaN,13.4,NaN,345.0,NaN,26.0,NaN,NaN,0.605,NaN,331.0,NaN,NaN,NaN,2,8.3,002405,   NaN,330.5,     NaN,      NaN,NaN,11.5,NaN, NaN,0.524,NaN,NaN, NaN, NaN
20060222,002436,1562368,35.066200,-123.670700,NaN,13.169,32.953,38.960,  NaN,NaN,0.980, NaN, NaN,14.500, NaN,   NaN,12.00,1023.66,70.30,NaN,14.0,NaN,15.2,NaN,346.0,NaN,29.5,NaN,NaN,0.689,NaN,329.0,NaN,NaN,NaN,2,8.0,002435,   NaN,328.2,     NaN,      NaN,NaN,11.4,NaN, NaN,2.844,NaN,NaN, NaN, NaN
20060222,002506,1562398,35.067200,-123.671300,NaN,13.169,32.953,38.960,  NaN,NaN,53.902, NaN, NaN, NaN, NaN,   NaN,12.00,1023.47,70.10,NaN,11.0,NaN,13.6,NaN,345.6,NaN,26.5,NaN,NaN,4.669,NaN,331.0,NaN,NaN,NaN,2,8.2,002505,   NaN,331.2,     NaN,      NaN,NaN,11.7,NaN, NaN,137.300,NaN,NaN, NaN, NaN
20060222,002536,1562428,35.068000,-123.672000,NaN,13.169,32.953,38.960,  NaN,NaN, NaN, NaN, NaN, NaN, NaN,   NaN,12.00,1023.17,69.20,NaN,17.0,NaN,15.3,NaN,350.3,NaN,29.8,NaN,NaN, NaN,NaN,327.0,NaN,NaN,NaN,2,7.6,002535,   NaN,329.0,     NaN,      NaN,NaN,11.2,NaN, NaN, NaN,NaN,NaN, NaN, NaN
20060222,002606,1562458,35.069000,-123.672700,NaN,13.159,32.953,38.960,  NaN,NaN,6.709, NaN, NaN,14.000, NaN,   NaN,12.00,1023.60,70.80,NaN,14.0,NaN,12.8,NaN,349.8,NaN,24.9,NaN,NaN,1.937,NaN,329.0,NaN,NaN,NaN,2,7.7,002605,   NaN,331.5,     NaN,      NaN,NaN,10.9,NaN, NaN,36.590,NaN,NaN, NaN, NaN
20060222,002636,1562488,35.070000,-123.673300,NaN,13.159,32.953,38.950,  NaN,NaN,2.245, NaN, NaN,14.000, NaN,   NaN,12.10,1023.39,72.20,NaN,15.0,NaN,12.6,NaN,349.0,NaN,24.5,NaN,NaN,1.117,NaN,328.0,NaN,NaN,NaN,2,8.0,002635,   NaN,329.1,     NaN,      NaN,NaN,11.3,NaN, NaN,24.730,NaN,NaN, NaN, NaN
20060222,002706,1562518,35.071000,-123.674200,NaN,13.149,32.943,38.940,  NaN,NaN,0.888, NaN, NaN,14.500, NaN,   NaN,12.00,1023.58,71.30,NaN,11.0,NaN,13.2,NaN,343.0,NaN,25.7,NaN,NaN,0.647,NaN,329.0,NaN,NaN,NaN,2,8.3,002705,   NaN,328.5,     NaN,      NaN,NaN,11.5,NaN, NaN,1.908,NaN,NaN, NaN, NaN
20060222,002736,1562548,35.071800,-123.674800,NaN,13.139,32.943,38.920,  NaN,NaN,33.952, NaN, NaN, NaN, NaN,   NaN,12.00,1023.44,71.30,NaN,11.0,NaN,11.8,NaN,346.1,NaN,22.9,NaN,NaN,3.896,NaN,330.0,NaN,NaN,NaN,2,8.2,002735,   NaN,331.2,     NaN,      NaN,NaN,11.3,NaN, NaN,105.800,NaN,NaN, NaN, NaN
20060222,002806,1562578,35.072800,-123.675500,NaN,13.129,32.943,38.910,  NaN,NaN,14.050, NaN, NaN,14.000, NaN,   NaN,12.00,1023.36,71.30,NaN,16.0,NaN,13.1,NaN,353.2,NaN,25.5,NaN,NaN,2.701,NaN,332.0,NaN,NaN,NaN,2,8.0,002805,   NaN,332.2,     NaN,      NaN,NaN,11.7,NaN, NaN,57.880,NaN,NaN, NaN, NaN
20060222,002836,1562608,35.073800,-123.676200,NaN,13.129,32.933,38.900,  NaN,NaN,14.846, NaN, NaN,14.000, NaN,   NaN,12.00,1023.47,70.30,NaN,2.0,NaN,11.6,NaN,331.8,NaN,22.5,NaN,NaN,2.766,NaN,328.0,NaN,NaN,NaN,2,7.9,002835,   NaN,329.1,     NaN,      NaN,NaN,11.3,NaN, NaN,64.150,NaN,NaN, NaN, NaN
20060222,002906,1562638,35.074800,-123.676800,NaN,13.120,32.933,38.890,  NaN,NaN,0.682, NaN, NaN,14.500, NaN,   NaN,11.80,1023.66,69.00,NaN,14.0,NaN,11.9,NaN,347.1,NaN,23.2,NaN,NaN,0.543,NaN,326.0,NaN,NaN,NaN,2,7.7,002905,   NaN,328.5,     NaN,      NaN,NaN,11.2,NaN, NaN,0.376,NaN,NaN, NaN, NaN
20060222,002936,1562668,35.075700,-123.677500,NaN,13.110,32.933,38.880,  NaN,NaN,11.588, NaN, NaN,14.000, NaN,   NaN,12.00,1023.38,71.70,NaN,7.0,NaN,12.6,NaN,338.9,NaN,24.5,NaN,NaN,2.483,NaN,331.0,NaN,NaN,NaN,2,7.0,002935,   NaN,329.9,     NaN,      NaN,NaN,10.7,NaN, NaN,68.600,NaN,NaN, NaN, NaN
20060222,003006,1562698,35.076700,-123.678200,NaN,13.110,32.933,38.880,  NaN,NaN, NaN, NaN, NaN, NaN, NaN,   NaN,12.00,1023.47,71.70,NaN,1.0,NaN,13.1,NaN,331.8,NaN,25.5,NaN,NaN, NaN,NaN,332.0,NaN,NaN,NaN,2,7.8,003005,   NaN,330.5,     NaN,      NaN,NaN,11.2,NaN, NaN, NaN,NaN,NaN, NaN, NaN
20060222,003036,1562728,35.077500,-123.678800,NaN,13.100,32.924,38.870,  NaN,NaN,89.388, NaN, NaN, NaN, NaN,   NaN,12.00,1023.68,72.70,NaN,3.0,NaN,10.0,NaN,335.2,NaN,19.4,NaN,NaN,5.650,NaN,330.0,NaN,NaN,NaN,2,8.3,003035,   NaN,330.9,     NaN,      NaN,NaN,11.7,NaN, NaN,171.100,NaN,NaN, NaN, NaN
20060222,003106,1562758,35.078500,-123.679500,NaN,13.090,32.924,38.860,  NaN,NaN,0.653, NaN, NaN,14.500, NaN,   NaN,12.00,1023.58,73.10,NaN,4.0,NaN,12.0,NaN,334.7,NaN,23.2,NaN,NaN,0.527,NaN,331.0,NaN,NaN,NaN,2,7.9,003105,   NaN,329.3,     NaN,      NaN,NaN,11.4,NaN, NaN,1.018,NaN,NaN, NaN, NaN
20060222,003136,1562788,35.079500,-123.680200,NaN,13.090,32.924,38.850,  NaN,NaN,17.248, NaN, NaN,14.000, NaN,   NaN,12.00,1023.64,71.50,NaN,10.0,NaN,13.7,NaN,341.6,NaN,26.7,NaN,NaN,2.949,NaN,330.0,NaN,NaN,NaN,2,8.3,003135,   NaN,328.5,     NaN,      NaN,NaN,11.4,NaN, NaN,65.640,NaN,NaN, NaN, NaN
20060222,003206,1562818,35.080300,-123.680800,NaN,13.090,32.924,38.850,  NaN,NaN, NaN, NaN, NaN, NaN, NaN,   NaN,12.00,1023.44,69.70,NaN,13.0,NaN,14.7,NaN,343.8,NaN,28.5,NaN,NaN, NaN,NaN,327.0,NaN,NaN,NaN,2,7.2,003205,   NaN,327.5,     NaN,      NaN,NaN,10.4,NaN, NaN, NaN,NaN,NaN, NaN, NaN
20060222,003236,1562848,35.081300,-123.681500,NaN,13.080,32.924,38.850,  NaN,NaN,9.320, NaN, NaN,14.000, NaN,   NaN,12.00,1023.38,69.70,NaN,8.0,NaN,14.3,NaN,339.8,NaN,27.7,NaN,NaN,2.253,NaN,331.0,NaN,NaN,NaN,2,7.9,003235,   NaN,329.5,     NaN,      NaN,NaN,11.5,NaN, NaN,48.950,NaN,NaN, NaN, NaN
20060222,003306,1562878,35.082300,-123.682200,NaN,13.070,32.924,38.840,  NaN,NaN,26.826, NaN, NaN, NaN, NaN,   NaN,12.00,1023.52,72.30,NaN,10.0,NaN,12.6,NaN,342.0,NaN,24.6,NaN,NaN,3.543,NaN,330.0,NaN,NaN,NaN,2,7.7,003305,   NaN,328.9,     NaN,      NaN,NaN,11.1,NaN, NaN,101.000,NaN,NaN, NaN, NaN
20060222,003336,1562908,35.083300,-123.682800,NaN,13.070,32.914,38.830,  NaN,NaN,0.901, NaN, NaN,14.400, NaN,   NaN,12.00,1023.39,71.30,NaN,11.0,NaN,12.9,NaN,343.1,NaN,25.1,NaN,NaN,0.653,NaN,330.0,NaN,NaN,NaN,2,8.2,003335,   NaN,328.5,     NaN,      NaN,NaN,11.0,NaN, NaN,5.421,NaN,NaN, NaN, NaN
20060222,003406,1562938,35.084300,-123.683700,NaN,13.070,32.924,38.830,  NaN,NaN,0.589, NaN, NaN,14.400, NaN,   NaN,12.00,1023.62,71.10,NaN,12.0,NaN,13.5,NaN,343.0,NaN,26.3,NaN,NaN,0.490,NaN,328.0,NaN,NaN,NaN,2,8.2,003405,   NaN,327.3,     NaN,      NaN,NaN,11.4,NaN, NaN,1.370,NaN,NaN, NaN, NaN
20060222,003436,1562968,35.085200,-123.684300,NaN,13.070,32.914,38.830,  NaN,NaN,23.044, NaN, NaN, NaN, NaN,   NaN,12.00,1023.71,71.30,NaN,11.0,NaN,11.2,NaN,342.6,NaN,21.8,NaN,NaN,3.329,NaN,327.0,NaN,NaN,NaN,2,8.0,003435,   NaN,327.6,     NaN,      NaN,NaN,11.2,NaN, NaN,101.900,NaN,NaN, NaN, NaN
20060222,003506,1562998,35.086200,-123.685000,NaN,13.070,32.914,38.820,  NaN,NaN,7.587, NaN, NaN,14.000, NaN,   NaN,12.00,1023.33,71.80,NaN,1.0,NaN,12.4,NaN,334.3,NaN,24.2,NaN,NaN,2.051,NaN,334.0,NaN,NaN,NaN,2,7.7,003505,   NaN,333.0,     NaN,      NaN,NaN,11.4,NaN, NaN,41.310,NaN,NaN, NaN, NaN
20060222,003536,1563028,35.087000,-123.685500,NaN,13.060,32.914,38.820,  NaN,NaN,2.788, NaN, NaN,14.000, NaN,   NaN,12.00,1023.70,70.60,NaN,9.0,NaN,12.9,NaN,340.4,NaN,25.0,NaN,NaN,1.254,NaN,330.0,NaN,NaN,NaN,2,7.7,003535,   NaN,328.6,     NaN,      NaN,NaN,11.1,NaN, NaN,23.270,NaN,NaN, NaN, NaN
20060222,003606,1563058,35.088000,-123.686300,NaN,13.070,32.914,38.820,  NaN,NaN,0.590, NaN, NaN,14.400, NaN,   NaN,12.00,1023.50,71.40,NaN,6.0,NaN,13.8,NaN,333.9,NaN,26.9,NaN,NaN,0.491,NaN,328.0,NaN,NaN,NaN,2,8.0,003605,   NaN,326.1,     NaN,      NaN,NaN,11.1,NaN, NaN,0.706,NaN,NaN, NaN, NaN
20060222,003636,1563088,35.089000,-123.687000,NaN,13.070,32.914,38.820,  NaN,NaN,0.655, NaN, NaN,14.400, NaN,   NaN,12.00,1023.55,71.50,NaN,2.0,NaN,13.5,NaN,332.0,NaN,26.2,NaN,NaN,0.528,NaN,329.0,NaN,NaN,NaN,2,7.9,003635,   NaN,329.4,     NaN,      NaN,NaN,11.2,NaN, NaN,1.224,NaN,NaN, NaN, NaN
20060222,003706,1563118,35.090000,-123.687700,NaN,13.070,32.914,38.820,  NaN,NaN,0.789, NaN, NaN,14.400, NaN,   NaN,12.00,1023.48,72.70,NaN,5.0,NaN,14.5,NaN,337.8,NaN,28.1,NaN,NaN,0.599,NaN,333.0,NaN,NaN,NaN,2,7.7,003705,   NaN,331.4,     NaN,      NaN,NaN,11.2,NaN, NaN,4.070,NaN,NaN, NaN, NaN
20060222,003736,1563148,35.090800,-123.688300,NaN,13.070,32.914,38.820,  NaN,NaN,6.037, NaN, NaN,14.000, NaN,   NaN,12.00,1023.65,70.90,NaN,2.0,NaN,14.0,NaN,328.2,NaN,27.2,NaN,NaN,1.843,NaN,328.0,NaN,NaN,NaN,2,7.6,003735,   NaN,325.6,     NaN,      NaN,NaN,11.0,NaN, NaN,44.740,NaN,NaN, NaN, NaN
20060222,003806,1563178,35.091800,-123.689000,NaN,13.070,32.914,38.820,  NaN,NaN,22.118, NaN, NaN,14.000, NaN,   NaN,12.10,1023.22,73.60,NaN,3.0,NaN,14.2,NaN,334.9,NaN,27.5,NaN,NaN,3.273,NaN,328.0,NaN,NaN,NaN,2,7.8,003805,   NaN,331.0,     NaN,      NaN,NaN,11.2,NaN, NaN,85.130,NaN,NaN, NaN, NaN
20060222,003836,1563208,35.092700,-123.689700,NaN,13.070,32.914,38.830,  NaN,NaN,42.456, NaN, NaN, NaN, NaN,   NaN,12.10,1023.65,71.80,NaN,11.0,NaN,12.3,NaN,345.6,NaN,24.0,NaN,NaN,4.256,NaN,330.0,NaN,NaN,NaN,2,7.6,003835,   NaN,331.1,     NaN,      NaN,NaN,10.9,NaN, NaN,107.800,NaN,NaN, NaN, NaN
20060222,003906,1563238,35.093700,-123.690300,NaN,13.080,32.914,38.830,  NaN,NaN,0.710, NaN, NaN,14.400, NaN,   NaN,12.00,1023.40,69.90,NaN,10.0,NaN,13.1,NaN,338.9,NaN,25.5,NaN,NaN,0.558,NaN,328.0,NaN,NaN,NaN,2,8.3,003905,   NaN,325.7,     NaN,      NaN,NaN,11.3,NaN, NaN,4.497,NaN,NaN, NaN, NaN
20060222,003936,1563268,35.094700,-123.691000,NaN,13.080,32.914,38.830,  NaN,NaN,7.821, NaN, NaN,14.000, NaN,   NaN,12.00,1023.58,70.80,NaN,2.0,NaN,13.5,NaN,331.6,NaN,26.2,NaN,NaN,2.080,NaN,329.0,NaN,NaN,NaN,2,7.9,003935,   NaN,329.0,     NaN,      NaN,NaN,11.2,NaN, NaN,44.630,NaN,NaN, NaN, NaN